Temperature
18 18 18 17 17 17 17 17 17 17 17 17 17 17 17 17 17 17 17 17 17 17 17 17 17 16 16 16 16 16 16 16 16 16 16 16 16 16 16 15 15 15 15
18 18 18 17 17 17 17 17 17 17 17 17 17 17 17 17 17 17 17 17 17 17 17 17 17 16 16 16 16 16 16 16 16 16 16 16 16 16 15 15 15 15 15
18 18 18 17 17 17 17 17 17 17 17 17 17 17 17 17 17 17 17 17 17 17 17 16 16 16 16 16 16 16 16 16 16 16 16 16 16 16 15 15 15 15 15
17 17 17 17 17 17 17 17 17 17 17 17 17 17 17 17 17 17 17 17 17 17 17 16 16 16 16 16 16 16 16 16 16 16 16 16 16 16 15 15 15 15 15
17 17 17 17 17 17 17 17 17 17 17 17 17 17 17 17 17 17 17 17 17 16 16 16 16 16 16 16 16 16 16 16 16 16 16 16 16 16 15 15 15 15 15
17 17 17 17 17 17 17 17 17 17 17 17 17 17 17 17 17 17 17 17 16 16 16 16 16 16 16 16 16 16 16 16 16 16 16 15 15 15 15 15 15 15 15
17 17 17 17 17 17 17 17 17 17 17 17 17 17 17 17 17 17 17 17 17 16 16 16 16 16 16 16 16 16 16 16 16 16 15 15 15 15 15 15 15 15 15
17 17 17 17 17 17 17 17 17 17 17 17 17 17 17 17 17 17 17 17 17 17 16 16 16 16 16 16 16 16 16 16 16 15 15 15 15 15 15 15 15 15 15
17 17 17 17 17 17 17 17 17 17 17 17 17 17 17 17 17 17 17 17 17 17 17 16 16 16 16 16 16 16 16 16 16 15 15 15 15 15 15 15 15 15 15
17 17 17 17 17 17 17 17 17 17 17 17 17 17 17 17 17 17 17 17 17 17 17 17 17 16 16 16 16 16 16 16 16 15 15 15 15 15 15 15 15 15 15
17 17 17 17 17 17 17 17 17 17 17 17 17 17 17 17 17 17 17 17 17 17 17 17 17 17 16 16 16 16 16 16 16 16 15 15 15 15 15 15 15 15 14
17 17 17 17 17 17 17 17 17 17 17 17 17 17 17 17 17 17 17 17 17 17 17 17 17 17 17 16 16 16 16 16 16 15 15 15 15 15 15 15 15 14 14
17 17 17 17 17 17 17 17 17 17 17 17 17 17 17 17 17 17 17 17 17 17 17 17 17 17 17 17 16 16 16 16 16 15 15 15 15 15 15 14 14 14 14
17 17 17 17 17 17 17 17 16 16 16 17 17 17 17 17 17 17 17 17 17 17 17 17 17 17 17 16 16 16 16 16 15 15 15 15 15 15 14 14 14 14 14
17 17 17 17 17 17 16 16 16 16 16 16 16 16 16 16 16 16 16 16 16 16 16 16 16 16 16 16 16 16 16 16 15 15 15 15 15 14 14 14 14 14 14
17 17 17 17 17 17 16 16 16 16 16 16 16 16 16 16 16 16 16 16 16 16 16 16 16 16 16 16 16 15 15 15 15 15 15 14 14 14 14 14 14 13 13
17 17 17 16 16 16 16 16 16 16 16 16 16 16 16 16 16 16 16 16 16 16 16 15 15 15 15 15 15 15 15 15 15 14 14 14 14 13 13 13 13 13 13
16 16 16 16 16 16 16 16 16 16 16 16 16 16 16 16 15 15 15 15 15 15 15 15 15 15 14 14 14 14 14 14 14 13 13 13 13 13 13 12 12 12 12
16 16 16 16 16 16 16 16 16 16 16 15 15 15 15 15 15 15 15 15 15 15 15 14 14 14 14 14 13 13 13 13 13 13 12 12 12 12 11 11 11 11 11
16 16 16 16 16 16 16 16 16 15 15 15 15 15 15 15 15 15 14 14 14 14 14 14 14 13 13 13 13 13 12 12 12 11 11 11 11 11 11 10 10 10 10
16 16 16 16 15 15 15 15 15 15 15 15 15 15 14 14 14 14 14 14 13 13 13 13 13 13 12 12 12 12 11 11 11 10 10 10 10 10 10 9 9 9 9
16 15 15 15 15 15 15 15 15 15 15 14 14 14 14 14 14 13 13 13 13 13 12 12 12 12 12 11 11 11 11 10 10 9 9 9 9 9 9 9 8 8 8
15 15 15 15 15 15 15 15 14 14 14 14 14 13 13 13 13 13 12 12 12 12 11 11 11 11 11 10 10 10 10 10 9 9 9 8 8 8 8 8 7 7 7
15 15 15 14 14 14 14 14 14 14 13 13 13 13 13 12 12 12 12 11 11 11 11 10 10 10 10 10 9 9 9 9 8 8 8 7 7 7 7 7 6 6 6
15 14 14 14 14 14 13 13 13 13 13 12 12 12 12 11 11 11 11 11 10 10 10 9 9 9 9 9 8 8 8 8 8 7 7 7 6 6 6 6 6 6 5
14 14 14 13 13 13 13 13 12 12 12 12 11 11 11 10 10 10 10 10 10 9 9 9 8 8 8 8 8 8 7 7 7 7 6 6 6 6 5 5 5 5 5
Wind_Speed
4 4 4 4 4 5 5 4 4 4 4 4 5 5 5 5 5 5 6 8 8 8 8 8 9 9 8 8 7 7 7 7 7 7 7 7 7 7 6 7 6 6 6
6 5 3 3 3 4 4 3 3 3 3 3 3 4 4 5 5 5 5 7 8 9 9 8 9 9 8 8 8 7 8 7 7 7 7 7 7 7 6 6 6 6 6
8 6 4 3 3 4 5 4 4 3 2 2 2 2 3 4 5 5 5 5 6 8 9 9 9 9 9 8 8 8 8 8 8 8 8 8 8 8 7 7 6 6 6
9 7 4 3 4 4 4 3 3 2 2 2 1 1 2 3 4 4 5 5 6 6 8 9 10 10 10 10 10 10 10 10 10 9 10 9 9 9 9 8 8 8 7
9 8 5 4 5 4 3 3 2 2 2 2 2 1 1 2 2 4 5 6 7 7 7 8 10 10 11 11 10 10 10 10 11 11 11 11 11 11 11 10 10 10 9
10 8 6 6 6 4 3 3 3 2 2 2 2 1 0 1 2 3 5 6 7 8 8 8 8 9 10 11 11 11 10 10 11 11 11 12 12 12 12 12 12 11 11
10 8 5 5 5 4 5 5 3 3 2 2 2 1 1 1 2 3 4 4 6 8 8 8 8 8 8 10 11 12 12 11 11 11 12 12 12 12 13 13 13 13 13
9 8 6 5 5 4 4 5 4 3 2 2 3 2 1 2 2 2 3 4 5 6 7 8 9 9 9 8 9 11 12 12 11 11 12 13 13 13 13 13 13 14 14
10 9 8 6 5 5 5 5 5 5 4 2 2 3 3 3 2 2 2 3 4 4 5 7 8 9 9 9 9 10 11 11 11 11 11 12 12 13 13 13 13 13 13
9 10 9 8 6 5 5 5 5 4 4 3 2 1 2 3 2 1 2 1 2 3 4 5 6 8 9 10 10 11 11 11 11 11 11 11 11 12 12 12 12 12 11
6 8 8 8 6 5 5 5 5 5 4 4 4 2 2 1 1 2 1 2 1 1 2 4 4 5 7 8 9 10 11 10 10 10 10 10 10 10 10 11 11 10 10
3 5 7 7 6 5 5 5 5 6 5 4 4 3 3 3 3 3 3 2 1 1 1 1 2 4 5 6 8 9 9 10 10 9 8 8 8 8 8 8 8 8 7
3 5 5 5 5 6 6 5 5 5 5 5 5 4 3 3 3 3 3 2 1 1 1 1 1 2 3 4 5 7 6 8 8 7 7 6 6 5 5 5 4 4 4
5 5 5 6 6 6 6 5 4 4 4 5 5 4 3 3 3 3 4 3 2 1 1 1 1 3 2 1 2 3 2 2 4 4 4 5 4 4 3 3 2 1 1
4 5 5 5 5 6 5 5 4 4 4 4 4 4 3 3 3 3 3 3 4 3 2 1 1 2 3 2 1 2 2 2 2 1 1 2 2 2 2 3 3 2 2
4 5 5 5 5 5 5 5 4 4 4 4 3 4 3 3 2 2 3 3 3 4 3 1 0 2 4 4 5 5 6 7 7 6 5 5 5 5 5 5 5 5 5
4 4 4 4 4 4 4 4 4 4 4 4 3 4 4 3 2 2 2 2 3 3 3 1 1 2 3 4 6 7 8 8 9 10 10 9 9 9 8 8 7 7 6
4 4 4 4 4 4 4 5 4 4 4 4 4 4 3 3 2 2 2 2 3 3 4 3 1 2 3 3 5 6 7 8 10 12 12 11 11 11 10 10 9 8 8
3 4 4 4 3 3 3 3 4 4 3 3 3 4 3 3 3 2 2 2 2 2 3 3 2 2 2 3 4 5 7 7 9 10 11 12 12 12 11 10 9 9 9
4 4 3 3 3 3 3 3 4 4 4 3 3 3 3 3 3 3 3 3 4 4 4 4 3 2 2 2 3 3 5 5 6 8 10 10 11 11 11 10 9 9 8
4 4 4 3 3 2 3 4 5 5 5 5 4 3 3 5 5 4 4 4 5 5 5 5 4 3 2 2 2 2 4 4 6 6 5 7 8 8 9 9 9 8 8
5 5 4 4 3 2 4 6 6 6 5 5 5 4 5 6 8 10 10 8 7 6 5 4 3 3 2 2 2 3 3 3 2 3 3 4 5 5 6 7 8 9 8
5 5 5 4 4 4 6 8 9 6 6 5 5 5 5 6 8 8 11 13 11 10 7 5 5 3 2 1 2 3 2 3 2 1 2 3 3 4 5 8 9 10 10
6 5 5 5 5 6 8 10 11 8 7 6 5 5 6 6 6 8 10 10 9 9 8 7 6 4 3 3 2 3 3 4 4 4 3 2 2 2 4 6 9 10 9
6 5 5 6 6 7 9 11 10 7 7 7 6 6 7 7 8 10 10 10 9 8 13 15 14 12 12 10 7 5 4 4 3 3 3 2 2 2 2 3 7 9 9
7 7 7 6 7 6 8 9 9 7 7 7 6 7 9 8 8 9 8 9 8 6 6 8 10 12 12 12 11 6 3 3 2 2 3 2 2 2 1 2 4 6 7
Wind_Direction
145 139 130 127 125 123 119 113 113 116 118 122 137 146 151 157 161 167 174 177 177 176 173 172 169 170 169 166 165 165 165 164 161 162 163 161 160 161 161 161 161 162 163
160 153 147 145 145 141 138 135 130 129 125 128 136 154 161 165 168 174 178 185 188 187 186 186 184 184 183 182 181 184 184 180 178 179 179 179 180 179 179 177 178 182 183
174 164 159 164 173 157 143 126 116 112 124 132 136 159 167 173 177 181 186 192 197 201 201 202 200 198 196 195 196 201 200 195 192 193 193 194 196 196 196 197 198 199 201
183 169 166 178 180 162 146 134 128 119 122 141 162 185 172 184 192 196 199 203 206 213 216 217 212 211 209 210 211 213 214 210 207 206 206 208 209 209 209 212 214 214 215
189 176 177 182 173 157 152 159 139 146 156 162 180 192 201 209 213 217 215 215 217 222 226 231 229 225 224 225 226 225 224 222 219 217 217 218 220 219 219 222 223 224 225
187 180 178 175 165 154 159 155 139 132 141 154 160 121 305 238 227 230 231 227 228 230 232 234 237 237 236 235 236 236 234 232 227 226 227 228 228 226 226 228 229 230 231
187 180 176 166 165 169 173 162 143 142 137 127 100 46 356 321 243 240 237 236 239 236 234 234 235 237 239 241 243 242 242 240 234 231 231 233 233 232 232 233 234 236 238
187 187 176 174 171 164 164 166 154 144 150 150 136 118 8 338 312 249 227 231 240 238 237 236 234 235 238 240 244 245 246 245 242 237 234 235 235 235 236 237 238 240 243
187 184 179 175 175 173 179 181 171 161 166 172 166 149 155 222 281 312 259 241 236 229 238 240 239 239 239 239 244 249 252 252 251 249 245 242 240 239 240 240 242 244 247
183 183 180 178 178 178 179 186 178 170 158 171 184 185 165 159 164 288 318 282 249 240 242 243 242 239 237 237 242 248 251 253 253 252 248 246 243 242 243 244 246 249 251
185 184 180 177 178 181 185 183 172 176 175 173 176 168 153 133 146 166 249 306 317 270 247 242 242 242 239 238 242 247 249 250 251 252 250 247 246 247 247 249 250 250 250
192 190 183 182 183 184 189 190 183 181 186 180 179 178 170 167 183 178 200 233 256 297 292 259 248 249 244 240 244 246 247 246 245 247 249 249 249 251 256 255 253 253 255
200 202 189 185 187 191 191 183 178 186 188 185 187 195 197 196 170 167 172 196 222 287 336 4 300 273 254 245 248 246 247 244 242 243 240 241 241 243 252 257 256 259 261
206 201 193 192 192 189 189 179 182 193 189 192 196 191 196 206 191 181 175 168 183 268 337 318 359 358 320 278 254 238 246 242 238 237 233 231 224 223 223 222 219 205 76
202 195 194 194 193 187 183 177 188 195 183 191 196 193 200 211 200 199 186 178 174 201 236 290 346 0 6 42 30 104 103 77 100 141 182 191 175 168 169 161 146 129 108
190 182 185 188 187 185 184 181 187 188 183 195 193 190 199 210 200 196 193 191 185 186 205 211 357 13 33 58 60 81 86 81 77 85 91 98 106 107 107 110 110 101 92
178 181 180 179 178 177 176 176 184 183 188 195 191 188 203 198 193 195 184 175 177 170 186 189 55 28 43 54 60 69 74 76 74 78 83 85 88 90 91 91 91 91 87
168 169 168 169 178 177 173 177 185 183 187 196 195 183 192 181 181 183 173 179 179 174 173 178 119 42 49 56 65 66 67 76 76 73 77 80 83 85 86 86 85 82 79
155 154 158 164 169 171 172 176 175 169 173 185 185 181 180 162 167 161 152 154 153 148 144 150 139 66 60 64 71 69 66 60 70 69 74 76 79 79 79 80 81 79 78
145 144 138 143 150 151 148 146 147 140 139 138 138 148 160 163 168 157 143 137 128 120 116 121 120 88 66 61 78 81 73 56 54 57 65 71 71 70 68 71 74 74 73
121 119 116 116 120 132 141 141 138 135 128 117 103 100 103 110 117 126 132 134 133 127 120 116 111 98 84 79 85 80 97 86 56 44 55 54 59 60 57 57 59 64 67
93 96 100 105 104 111 115 124 129 125 122 120 115 99 87 86 92 93 95 96 107 124 132 126 120 117 112 102 93 106 112 105 81 22 50 52 54 56 49 51 48 55 58
93 92 92 96 94 88 98 109 114 114 108 104 102 99 96 86 88 91 84 79 74 80 100 123 120 121 122 139 127 106 87 86 96 44 62 56 35 46 43 43 43 46 47
96 92 88 88 87 83 93 102 102 96 90 83 82 92 98 89 95 101 94 83 73 64 70 81 91 85 84 86 100 115 112 95 75 44 41 62 24 25 27 27 32 34 34
96 91 88 86 86 80 85 94 97 97 91 81 76 79 90 89 93 103 102 97 86 72 70 76 78 76 73 74 90 98 94 93 72 39 23 54 32 15 16 16 15 18 22
97 92 83 79 86 85 83 91 99 105 101 92 77 70 77 90 92 100 107 109 101 86 83 76 67 62 62 62 63 68 95 98 87 60 20 34 28 19 25 8 357 6 12
Height
1566 1568 1570 1571 1573 1575 1576 1578 1579 1581 1582 1583 1584 1585 1586 1586 1587 1588 1589 1590 1591 1591 1592 1593 1594 1595 1597 1597 1598 1599 1600 1601 1602 1602 1603 1604 1605 1605 1606 1607 1607 1608 1608
1567 1569 1571 1572 1574 1576 1577 1579 1580 1581 1583 1584 1585 1586 1587 1587 1588 1589 1590 1590 1591 1592 1593 1594 1595 1596 1597 1598 1598 1599 1600 1601 1602 1602 1603 1604 1604 1605 1606 1606 1607 1607 1608
1568 1569 1571 1573 1575 1576 1578 1579 1580 1582 1583 1584 1585 1586 1587 1588 1588 1589 1590 1591 1591 1592 1593 1594 1595 1596 1597 1597 1598 1599 1600 1601 1601 1602 1603 1604 1604 1605 1605 1606 1606 1607 1607
1568 1570 1571 1573 1575 1577 1578 1580 1581 1582 1583 1584 1585 1586 1587 1588 1589 1589 1590 1591 1592 1592 1593 1594 1595 1595 1596 1597 1598 1598 1599 1600 1601 1601 1602 1603 1604 1604 1605 1605 1606 1606 1607
1568 1569 1571 1573 1575 1576 1578 1579 1581 1582 1583 1584 1585 1586 1587 1588 1589 1589 1590 1591 1591 1592 1593 1593 1594 1595 1595 1596 1597 1597 1598 1599 1600 1601 1601 1602 1602 1603 1604 1604 1605 1605 1605
1567 1569 1571 1573 1574 1576 1577 1579 1580 1582 1583 1584 1585 1586 1587 1587 1588 1589 1589 1590 1591 1591 1592 1593 1593 1594 1594 1595 1596 1596 1597 1598 1598 1599 1600 1600 1601 1602 1602 1603 1603 1604 1604
1566 1568 1570 1572 1573 1575 1576 1578 1580 1581 1582 1583 1585 1585 1586 1586 1587 1588 1588 1589 1590 1590 1591 1592 1592 1593 1593 1594 1595 1595 1596 1596 1597 1597 1598 1598 1599 1599 1600 1601 1601 1602 1602
1565 1567 1569 1571 1572 1574 1575 1577 1579 1580 1581 1583 1584 1584 1585 1586 1586 1586 1587 1588 1588 1589 1590 1590 1591 1591 1592 1593 1593 1594 1594 1595 1595 1595 1596 1596 1597 1597 1598 1598 1599 1599 1599
1563 1565 1567 1570 1571 1573 1574 1576 1577 1579 1580 1581 1582 1584 1584 1584 1584 1585 1585 1586 1587 1587 1588 1589 1589 1590 1591 1591 1592 1592 1593 1593 1593 1593 1594 1594 1594 1595 1595 1595 1596 1596 1597
1561 1564 1566 1568 1570 1571 1573 1574 1575 1577 1578 1579 1581 1582 1583 1583 1584 1584 1584 1584 1585 1586 1586 1587 1587 1588 1589 1589 1590 1590 1591 1591 1591 1591 1591 1592 1592 1592 1592 1592 1593 1593 1593
1560 1562 1564 1566 1568 1569 1571 1572 1573 1575 1576 1578 1579 1580 1580 1581 1582 1583 1582 1583 1583 1584 1584 1585 1586 1586 1587 1587 1587 1588 1588 1589 1589 1589 1589 1589 1589 1589 1589 1590 1590 1590 1590
1557 1560 1562 1564 1565 1567 1569 1570 1571 1573 1574 1575 1577 1578 1578 1579 1580 1580 1581 1581 1581 1582 1583 1583 1583 1584 1584 1585 1585 1585 1586 1586 1587 1587 1587 1587 1587 1587 1587 1587 1587 1587 1587
1555 1557 1559 1561 1563 1564 1566 1568 1569 1570 1571 1573 1574 1575 1576 1577 1578 1578 1579 1579 1580 1580 1580 1581 1581 1581 1582 1582 1582 1583 1583 1583 1584 1584 1584 1584 1584 1584 1584 1584 1584 1584 1584
1553 1555 1557 1559 1560 1562 1564 1565 1566 1568 1569 1570 1571 1572 1573 1574 1575 1576 1577 1577 1577 1578 1578 1578 1578 1579 1579 1579 1579 1580 1580 1580 1580 1581 1581 1581 1581 1581 1581 1581 1581 1581 1581
1550 1552 1554 1556 1558 1559 1561 1562 1563 1564 1566 1567 1568 1569 1570 1571 1572 1573 1574 1574 1576 1575 1575 1576 1576 1576 1576 1576 1577 1577 1577 1577 1577 1578 1578 1578 1578 1578 1578 1578 1577 1577 1577
1548 1550 1551 1553 1555 1556 1557 1559 1560 1561 1562 1563 1565 1566 1566 1567 1568 1569 1570 1570 1571 1572 1572 1572 1573 1573 1573 1574 1574 1574 1574 1574 1574 1574 1574 1574 1574 1574 1574 1574 1574 1574 1574
1545 1547 1548 1550 1552 1553 1554 1556 1557 1558 1558 1559 1561 1562 1563 1564 1564 1565 1566 1566 1567 1568 1568 1569 1569 1570 1570 1571 1571 1571 1571 1571 1571 1571 1571 1571 1571 1571 1571 1570 1570 1570 1570
1542 1544 1546 1547 1548 1550 1551 1552 1553 1554 1555 1556 1557 1558 1559 1560 1560 1561 1561 1562 1563 1563 1564 1565 1566 1566 1567 1567 1568 1568 1568 1568 1568 1568 1568 1568 1568 1568 1567 1567 1567 1567 1567
1540 1541 1543 1544 1545 1546 1548 1549 1550 1551 1552 1552 1553 1554 1555 1556 1556 1557 1558 1558 1559 1560 1560 1561 1562 1563 1563 1564 1564 1565 1565 1565 1565 1565 1565 1566 1565 1565 1565 1564 1564 1564 1563
1538 1539 1540 1542 1543 1544 1545 1546 1547 1548 1548 1549 1550 1551 1551 1552 1552 1553 1554 1555 1555 1556 1557 1558 1558 1560 1561 1561 1562 1562 1562 1563 1563 1563 1563 1563 1563 1563 1562 1562 1561 1561 1560
1536 1537 1539 1540 1541 1542 1543 1543 1544 1545 1546 1546 1547 1548 1548 1549 1549 1550 1551 1551 1552 1553 1554 1555 1555 1556 1558 1558 1559 1559 1559 1560 1560 1561 1561 1560 1560 1560 1560 1559 1559 1558 1558
1534 1536 1537 1538 1539 1540 1541 1542 1542 1543 1543 1544 1545 1545 1546 1547 1547 1548 1548 1549 1550 1551 1552 1553 1553 1554 1555 1556 1556 1557 1557 1558 1558 1559 1559 1559 1559 1558 1558 1557 1557 1556 1556
1533 1534 1536 1537 1538 1538 1539 1540 1540 1541 1541 1542 1543 1544 1544 1545 1546 1546 1547 1548 1549 1549 1551 1552 1552 1553 1553 1554 1554 1554 1555 1556 1556 1556 1557 1557 1557 1556 1556 1555 1555 1554 1554
1532 1534 1535 1536 1536 1537 1538 1538 1539 1540 1540 1541 1542 1543 1543 1544 1545 1545 1546 1547 1547 1548 1549 1550 1551 1551 1552 1552 1553 1553 1554 1554 1554 1555 1555 1555 1555 1555 1554 1554 1553 1552 1552
1532 1533 1534 1535 1536 1536 1537 1538 1539 1539 1539 1540 1541 1542 1543 1544 1544 1545 1546 1546 1547 1548 1549 1550 1550 1551 1551 1552 1552 1553 1553 1553 1553 1554 1554 1554 1553 1553 1553 1552 1552 1551 1550
1531 1533 1534 1535 1535 1536 1537 1537 1538 1539 1539 1540 1541 1542 1543 1544 1545 1546 1546 1547 1547 1549 1549 1550 1551 1551 1551 1551 1552 1552 1552 1553 1553 1553 1553 1553 1552 1552 1552 1551 1551 1550 1548